EHI
0 0 0 0 0 0 0 0 0 0 0 0 0 1 2 4 6 9 13 22 31 33 30 28 27 27 35 47 57 67 78 87 91 90 83 71 57 40 27 18 14 12 9 7
0 0 0 0 0 0 0 0 0 0 0 0 0 1 3 6 11 17 21 28 36 39 37 35 32 32 39 49 58 68 78 86 90 85 73 57 41 28 17 11 7 6 5 4
0 0 0 0 0 0 0 0 0 0 0 0 0 1 5 11 21 29 35 41 47 49 46 43 41 41 47 54 61 70 78 84 85 76 61 44 30 18 9 3 1 1 1 1
0 0 0 0 0 0 0 0 0 0 0 0 0 1 5 14 26 36 45 53 58 59 54 51 51 52 56 60 65 73 79 80 76 67 54 42 28 15 5 1 0 0 0 0
0 0 0 0 0 0 0 0 0 0 0 0 0 0 3 10 22 35 46 54 59 60 57 56 56 57 59 61 66 72 75 71 64 56 47 37 23 10 2 0 0 0 0 0
0 0 0 0 0 0 0 0 0 0 0 0 0 0 3 7 15 28 39 45 48 49 50 50 51 53 55 56 60 63 61 57 49 40 32 23 12 4 0 0 0 0 0 0
0 0 0 0 0 0 0 0 0 0 0 0 0 1 5 9 14 21 28 32 34 35 37 37 39 43 44 44 47 46 41 36 29 22 15 9 4 1 0 0 0 0 0 0
0 0 0 0 0 0 0 0 0 0 0 0 0 2 7 12 15 17 18 19 20 22 24 24 24 26 26 26 27 27 23 19 14 9 5 2 0 0 0 0 0 0 0 0
0 0 0 0 0 0 0 0 0 0 0 0 0 1 5 10 14 14 11 9 7 8 10 10 9 9 9 9 10 11 10 8 6 3 1 0 0 0 0 0 0 0 0 0
0 0 0 0 0 0 0 0 0 0 0 0 0 0 3 8 12 11 8 4 1 1 1 1 1 1 1 1 2 3 3 2 1 0 0 0 0 0 0 0 0 0 0 0
0 0 0 0 0 0 0 0 0 0 0 0 0 0 3 8 10 8 4 1 0 0 0 0 0 0 0 0 0 0 0 0 0 0 0 0 0 0 0 0 0 0 0 0
0 0 0 0 0 0 0 0 0 0 0 0 0 0 2 5 5 3 1 0 0 0 0 0 0 0 0 0 0 0 0 0 0 0 0 0 0 0 0 0 0 0 0 0
0 0 0 0 0 0 0 0 0 0 0 0 0 0 1 2 1 0 0 0 0 0 0 0 0 0 0 0 0 0 0 0 0 0 0 0 0 0 0 0 0 0 0 0
0 0 0 0 0 0 0 0 0 0 0 0 0 0 0 0 0 0 0 0 0 0 0 0 0 0 0 0 0 0 0 0 0 0 0 0 0 0 0 0 0 0 0 0
0 0 0 0 0 0 0 0 0 0 0 0 0 0 0 0 0 0 0 0 0 0 0 0 0 0 0 0 0 0 0 0 0 0 0 0 0 0 0 0 0 0 0 0
0 0 0 0 0 0 0 0 0 0 0 0 0 0 0 0 0 0 0 0 0 0 0 0 0 0 0 0 0 0 0 0 0 0 0 0 0 0 0 0 0 0 0 0
0 0 0 0 0 0 0 0 0 0 0 0 0 0 0 0 0 0 0 0 0 0 0 0 0 0 0 0 0 0 0 0 0 0 0 0 0 0 0 0 0 0 0 0
0 0 0 0 0 0 0 0 0 0 0 0 0 0 0 0 0 0 0 0 0 0 0 0 0 0 0 0 0 0 0 0 0 0 0 0 0 0 0 0 0 0 0 0
0 0 0 0 0 0 0 0 0 0 0 0 0 0 0 0 0 0 0 0 0 0 0 0 0 0 0 0 0 0 0 0 0 0 0 0 0 0 0 0 0 0 0 0
0 0 0 0 0 0 0 0 0 0 0 0 0 0 0 0 0 0 0 0 0 0 0 0 0 0 0 0 0 0 0 0 0 0 0 0 0 0 0 0 0 0 0 0
0 0 0 0 0 0 0 0 0 0 0 0 0 0 0 0 0 0 0 0 0 0 0 0 0 0 0 0 0 0 0 0 0 0 0 0 0 0 0 0 0 0 0 0
0 0 0 0 0 0 0 0 0 0 0 0 0 0 0 0 0 0 0 0 0 0 0 0 0 0 0 0 0 0 0 0 0 0 0 0 0 0 0 0 0 0 0 0
0 0 0 0 0 0 0 0 0 0 0 0 0 0 0 0 0 0 0 0 0 0 0 0 0 0 0 0 0 0 0 0 0 0 0 0 0 0 0 0 0 0 0 0
0 0 0 0 0 0 0 0 0 0 0 0 0 0 0 0 0 0 0 0 0 0 0 0 0 0 0 0 0 0 0 0 0 0 0 0 0 0 0 0 0 0 0 0
0 0 0 0 0 0 0 0 0 0 0 0 0 0 0 0 0 0 0 0 0 0 0 0 0 0 0 0 0 0 0 0 0 0 0 0 0 0 0 0 0 0 0 0
0 0 0 0 0 0 0 0 0 0 0 0 0 0 0 0 0 0 0 0 0 0 0 0 0 0 0 0 0 0 0 0 0 0 0 0 0 0 0 0 0 0 0 0
Wind_Speed
2 3 3 6 6 7 5 5 8 9 8 4 10 15 14 8 4 4 7 11 11 11 9 8 7 7 8 8 9 11 12 13 11 9 8 6 5 5 5 5 6 6 6 6
2 4 8 6 6 6 6 7 10 11 9 6 10 14 9 2 3 5 8 10 11 9 7 7 7 6 8 11 11 10 11 12 10 6 5 5 6 5 5 5 7 7 7 6
6 8 7 6 7 7 8 7 8 9 10 7 3 6 2 3 7 9 8 8 7 9 9 8 7 8 8 8 9 8 8 9 8 9 8 8 7 5 4 5 5 6 7 7
7 9 6 7 9 7 8 8 7 6 3 5 2 3 4 3 7 10 10 10 9 8 7 6 6 5 5 6 6 7 8 9 10 11 11 11 8 6 5 5 6 7 7 7
7 6 7 9 12 9 9 8 4 3 1 3 4 2 6 3 6 8 10 11 11 10 9 8 7 6 5 5 7 8 10 9 9 10 12 11 9 8 7 8 9 7 7 7
10 7 7 10 11 9 7 2 4 5 5 2 3 2 4 3 3 9 10 11 11 11 11 10 10 9 9 9 8 9 11 10 9 9 9 11 13 12 11 9 9 7 5 6
7 8 7 6 5 4 2 5 4 5 4 5 4 2 1 7 8 11 12 11 11 10 10 11 12 12 11 11 11 11 13 12 11 11 11 11 12 12 12 10 9 7 6 5
3 6 5 5 7 5 3 9 7 4 2 4 3 3 4 10 12 13 12 11 11 11 11 11 12 12 12 13 13 13 14 14 13 13 12 11 11 9 8 9 8 7 6 5
3 6 6 5 5 6 3 4 8 6 1 1 2 4 5 9 11 12 11 11 11 10 10 11 12 12 13 14 14 13 15 14 13 14 13 12 12 11 10 10 9 7 6 6
3 4 6 4 2 1 5 4 5 5 3 2 3 3 4 9 10 10 10 10 9 9 10 11 11 12 12 13 13 14 15 14 13 12 11 11 11 11 10 9 9 7 7 7
3 2 6 5 3 1 2 3 3 4 4 4 2 2 4 8 11 11 10 9 9 9 9 10 10 11 12 12 12 13 13 14 13 13 12 12 11 11 10 9 8 7 7 7
4 3 2 2 2 4 6 3 3 4 2 3 3 2 7 12 12 12 10 9 9 9 9 9 10 11 11 12 12 13 12 13 12 12 13 12 11 10 10 9 8 7 7 7
4 5 4 6 8 9 7 5 3 3 3 2 3 3 6 11 12 11 10 9 9 9 9 8 9 10 11 11 12 12 12 12 11 12 12 12 10 10 9 9 8 8 7 7
4 5 4 2 1 2 4 7 6 6 3 1 2 6 7 9 10 9 9 9 9 9 9 9 9 9 10 11 11 12 12 11 11 11 12 11 10 9 9 8 8 8 7 8
6 4 2 2 3 6 9 9 8 7 3 4 5 7 7 7 9 8 8 9 9 10 10 10 11 10 10 11 11 11 11 10 10 11 11 9 8 8 8 8 7 7 8 8
5 3 3 3 6 10 12 12 8 7 6 7 9 8 6 7 7 8 8 9 10 10 11 11 11 11 11 10 11 10 10 9 9 10 9 8 8 7 7 7 6 7 7 6
3 3 3 1 3 6 9 8 7 7 6 3 4 6 8 8 7 6 7 9 10 11 11 11 10 9 9 8 8 9 8 8 8 8 8 7 7 6 6 6 6 6 5 5
3 3 3 2 4 6 1 1 7 9 8 8 10 8 9 9 9 8 7 9 10 10 10 9 8 7 7 8 7 7 8 7 7 7 6 6 6 6 5 5 5 4 3 3
4 4 4 4 4 4 1 1 2 5 5 4 9 10 11 11 10 8 7 8 9 8 8 7 7 7 7 7 7 7 7 6 7 6 6 5 5 5 5 5 3 2 2 2
6 6 5 4 4 2 2 6 1 8 4 2 7 10 9 5 5 3 5 8 9 8 7 6 6 7 6 5 5 7 6 6 5 5 4 4 4 5 4 3 2 1 1 0
5 6 5 4 4 1 4 6 3 3 3 3 6 7 5 2 5 8 8 8 8 7 7 6 6 5 4 5 6 6 5 4 3 4 4 4 4 4 3 2 1 1 1 1
3 3 3 3 3 2 5 4 4 4 3 5 5 6 8 11 12 10 9 8 7 7 6 5 5 5 4 5 6 6 4 3 3 4 4 3 3 2 3 2 1 1 2 2
3 5 4 4 3 3 2 4 4 5 6 4 6 8 12 12 10 9 8 7 6 6 5 5 6 5 4 4 5 5 2 2 3 3 2 2 2 1 1 1 1 1 2 2
1 4 6 5 3 3 4 5 5 6 6 6 9 10 10 11 10 9 7 6 5 5 5 5 5 5 3 3 3 3 2 2 3 2 1 1 1 1 1 0 1 2 2 2
1 4 5 4 3 4 3 3 5 6 8 9 9 9 9 11 10 8 7 6 5 4 4 4 5 4 3 2 2 2 2 3 2 1 1 2 2 2 1 0 0 1 1 3
1 4 7 6 7 6 3 3 6 7 7 9 10 9 8 9 8 7 6 5 5 5 4 4 4 4 3 3 2 2 2 3 3 1 1 2 2 1 1 2 2 4 2 4
Wind_Direction
223 108 226 231 204 209 246 280 288 281 280 277 258 254 254 253 237 213 177 170 173 175 175 169 175 185 176 176 185 187 173 168 161 159 152 137 126 114 101 93 94 96 97 100
16 249 235 239 256 259 270 280 284 291 292 286 262 252 249 239 187 173 161 161 159 150 136 151 163 178 189 187 189 188 176 169 165 156 133 113 110 96 87 87 76 75 84 86
209 241 237 240 263 263 266 249 258 272 304 320 271 277 262 73 80 77 82 96 112 133 143 152 155 170 177 178 180 182 172 161 145 125 115 109 98 91 86 85 79 70 77 77
244 249 248 241 248 237 260 251 248 266 321 307 20 269 283 118 77 72 68 67 73 85 106 114 117 135 152 161 157 151 143 140 140 139 138 138 136 131 116 105 94 80 75 79
244 234 222 232 240 230 237 250 255 261 273 332 354 109 291 63 88 85 75 67 63 63 72 80 85 88 90 113 132 135 128 127 132 137 139 133 126 120 120 113 104 92 78 74
249 253 217 223 238 232 236 309 4 43 70 357 270 119 299 356 131 114 91 75 65 62 61 62 63 67 68 75 91 108 110 106 108 111 120 126 128 126 121 114 108 98 89 79
279 271 247 229 248 283 136 88 34 9 31 251 263 121 8 39 78 103 98 81 67 59 57 56 56 58 62 69 78 88 96 93 92 96 98 106 115 117 118 118 114 109 99 90
265 282 255 210 193 199 181 136 152 173 196 289 339 103 85 82 81 84 84 80 71 63 57 56 55 56 61 63 68 79 86 86 86 89 91 93 98 100 102 104 107 102 100 98
246 267 279 236 194 159 156 169 168 139 160 308 303 114 124 110 98 92 86 79 72 67 64 62 61 60 62 64 66 75 83 84 84 88 90 91 92 97 101 100 96 96 99 100
212 279 298 284 59 67 158 153 92 109 147 243 279 180 189 158 130 108 94 86 78 74 70 68 67 67 67 69 72 74 79 83 84 86 89 93 92 94 97 97 97 95 92 90
47 51 332 25 43 273 61 57 94 130 154 158 247 314 339 145 128 114 101 90 83 79 76 76 76 75 75 74 75 77 79 81 83 85 87 88 89 92 93 94 94 94 90 87
8 89 22 25 14 59 89 84 109 139 228 166 150 46 33 96 104 107 105 98 91 86 83 82 83 83 81 80 79 80 80 82 84 88 90 89 89 89 89 87 85 84 81 79
29 66 40 1 359 13 40 27 38 125 110 103 120 107 78 97 102 108 112 109 99 94 92 88 86 88 88 87 87 87 85 86 87 88 88 86 83 81 80 77 74 73 73 70
88 69 108 137 248 345 26 27 38 75 87 86 108 120 113 110 109 107 108 108 106 100 97 94 90 89 89 90 90 91 88 87 89 87 86 83 79 78 77 75 71 71 73 78
74 72 62 95 81 74 57 37 44 63 76 106 100 104 117 118 116 114 110 111 103 96 91 89 88 87 89 90 89 89 89 87 90 89 86 84 83 80 78 75 71 70 73 85
61 76 58 64 85 76 55 36 46 54 60 93 101 88 94 96 97 105 110 114 106 100 96 92 89 89 89 92 94 92 91 90 90 89 88 85 83 79 78 78 75 75 77 83
43 76 69 47 131 77 44 17 47 54 31 68 87 106 114 101 99 108 115 114 111 110 106 100 94 90 89 87 91 93 92 90 90 91 91 87 85 82 80 86 81 80 81 89
107 75 92 87 65 73 120 81 91 82 60 77 97 105 103 99 87 76 87 107 109 106 104 99 96 91 87 88 87 88 89 89 89 88 87 85 86 86 83 82 81 77 80 95
116 112 81 83 88 98 74 309 190 121 82 96 120 123 120 116 90 68 70 91 100 102 102 98 97 98 96 95 99 98 93 93 93 92 92 93 96 98 92 85 77 71 82 92
50 73 86 86 98 123 288 316 94 110 99 150 146 148 154 143 110 115 97 97 96 94 95 97 94 93 95 94 100 100 99 98 100 103 104 103 103 107 105 104 92 75 102 170
26 32 57 79 91 89 303 325 53 115 185 167 155 158 155 104 124 124 112 100 99 98 96 96 94 92 97 100 99 99 100 107 115 109 100 95 104 119 125 115 93 72 35 7
103 80 57 84 97 249 310 25 91 158 135 112 117 121 113 110 110 113 111 109 107 105 102 101 98 92 88 94 98 101 103 113 106 101 101 104 124 139 138 125 40 30 42 31
99 159 145 134 176 224 35 93 119 124 113 114 116 122 125 121 120 118 115 115 111 110 106 101 103 94 81 91 106 112 122 109 97 101 115 127 146 164 152 154 148 47 58 68
40 108 95 85 93 98 85 94 96 104 111 117 127 129 127 125 126 123 121 119 116 112 110 108 105 102 94 97 109 130 135 116 112 128 177 204 213 250 264 229 171 141 126 106
180 92 93 104 143 97 66 94 113 109 112 117 125 127 130 129 129 128 125 124 122 117 114 116 121 124 127 124 122 145 147 129 129 161 239 260 254 241 237 55 72 164 184 174
329 140 142 181 190 152 160 135 124 126 132 135 131 125 127 129 128 124 123 125 123 122 120 118 123 128 136 136 154 185 168 144 141 165 261 266 267 251 178 138 62 46 99 126